West Point, VA

4:55 PM EST on December 12, 2017 (GMT -0500)
West Point

Weather History for KFYJ - April, 2014

Change the Weather History Date:

Wednesday, April 9, 2014

  Actual Average (KJGG) Record (KJGG)
Temperature  
Mean Temperature 58 °F -  
Max Temperature 69 °F 68 °F 90 °F (1959)
Min Temperature 47 °F 40 °F 28 °F (1972)
Degree Days  
Heating Degree Days 7    
Growing Degree Days 8 (Base 50)    
Moisture  
Dew Point 35 °F    
Average Humidity 48    
Maximum Humidity 78    
Minimum Humidity 20    
Precipitation  
Precipitation 0.03 in - - ()
Sea Level Pressure  
Sea Level Pressure 29.84 in    
Wind  
Wind Speed 3 mph (NW)    
Max Wind Speed 12 mph    
Max Gust Speed 21 mph    
Visibility 10 miles    
Events      
Averages and records for this station are not official NWS values.
T = Trace of Precipitation, MM = Missing Value Source: NWS Daily Summary

Daily Weather History Graph

Daily Weather History Graph

Search for Another Location

Airport or City:

Trip Planner

Search our weather history database for the weather conditions in past years. The results will help you decide how hot, cold, wet, or windy it might be!

Date:

Astronomy

Apr. 09, 2014 Rise Set
Actual Time 6:40 AM EDT 7:37 PM EDT
Civil Twilight 6:14 AM EDT 8:03 PM EDT
Nautical Twilight 5:42 AM EDT 8:35 PM EDT
Astronomical Twilight 5:09 AM EDT 9:08 PM EDT
Moon 2:29 PM EDT (4/9) 3:22 AM EDT (4/9)
Length of Visible Light 13h 49m
Length of Day
12h 56m
Waxing Gibbous, 71% of the Moon is Illuminated
Apr 9
Waxing Gibbous
Apr 15
Full
Apr 22
Last Quarter
Apr 29
New
May 6
First Quarter

Hourly Weather History & Observations

Time (EDT) Temp. Dew Point Humidity Pressure Visibility Wind Dir Wind Speed Gust Speed Precip Events Conditions
12:15 AM 50.9 °F 41.9 °F 71% 29.70 in 10.0 mi Calm Calm - N/A   Clear
12:35 AM 51.8 °F 39.9 °F 64% 29.70 in 10.0 mi Calm Calm - N/A   Clear
12:55 AM 50.2 °F 39.7 °F 67% 29.70 in 10.0 mi Calm Calm - N/A   Clear
1:35 AM 50.2 °F 42.8 °F 76% 29.69 in 10.0 mi Calm Calm - N/A   Clear
1:55 AM 50.4 °F 42.3 °F 74% 29.69 in 10.0 mi Calm Calm - N/A   Clear
2:15 AM 48.7 °F 42.3 °F 78% 29.70 in 10.0 mi Calm Calm - N/A   Scattered Clouds
2:35 AM 49.5 °F 42.1 °F 76% 29.70 in 10.0 mi Calm Calm - N/A   Mostly Cloudy
2:55 AM 49.6 °F 42.8 °F 77% 29.69 in 10.0 mi Calm Calm - N/A   Overcast
3:15 AM 50.0 °F 43.0 °F 77% 29.69 in 10.0 mi Calm Calm - N/A   Overcast
3:35 AM 50.2 °F 42.8 °F 76% 29.68 in 10.0 mi NNE 3.5 mph - N/A   Overcast
3:55 AM 52.7 °F 39.7 °F 61% 29.68 in 10.0 mi Calm Calm - N/A   Overcast
4:15 AM 52.5 °F 39.6 °F 61% 29.68 in 10.0 mi Calm Calm - N/A   Overcast
4:35 AM 50.4 °F 42.4 °F 74% 29.68 in 10.0 mi Calm Calm - N/A   Overcast
4:55 AM 51.3 °F 41.9 °F 70% 29.69 in 10.0 mi Calm Calm - N/A   Overcast
5:15 AM 51.1 °F 41.9 °F 71% 29.70 in 10.0 mi Calm Calm - N/A   Overcast
5:35 AM 51.1 °F 41.0 °F 68% 29.70 in 10.0 mi Calm Calm - N/A   Mostly Cloudy
5:55 AM 50.9 °F 41.2 °F 69% 29.71 in 10.0 mi Calm Calm - N/A   Scattered Clouds
6:15 AM 51.3 °F 41.4 °F 69% 29.73 in 10.0 mi Calm Calm - N/A   Scattered Clouds
6:35 AM 50.4 °F 41.5 °F 72% 29.74 in 10.0 mi Calm Calm - N/A   Scattered Clouds
6:55 AM 50.4 °F 41.0 °F 70% 29.75 in 10.0 mi NW 3.5 mph - N/A   Clear
7:15 AM 51.1 °F 39.9 °F 66% 29.77 in 10.0 mi Calm Calm - N/A   Clear
7:35 AM 51.3 °F 40.3 °F 66% 29.78 in 10.0 mi NW 3.5 mph - N/A   Mostly Cloudy
7:55 AM 51.8 °F 41.7 °F 68% 29.80 in 10.0 mi NW 3.5 mph - N/A   Scattered Clouds
8:15 AM 53.2 °F 41.7 °F 65% 29.81 in 10.0 mi NNW 4.6 mph - N/A   Scattered Clouds
8:35 AM 54.1 °F 39.7 °F 58% 29.81 in 10.0 mi NNW 4.6 mph - N/A   Clear
8:55 AM 55.4 °F 39.2 °F 54% 29.81 in 10.0 mi NNW 5.8 mph - N/A   Clear
9:15 AM 57.9 °F 36.3 °F 44% 29.82 in 10.0 mi NNW 8.1 mph - N/A   Clear
9:35 AM 59.5 °F 35.4 °F 41% 29.83 in 10.0 mi North 6.9 mph - N/A   Clear
9:55 AM 60.4 °F 32.0 °F 34% 29.83 in 10.0 mi NW 6.9 mph - N/A   Clear
10:15 AM 61.3 °F 30.0 °F 31% 29.84 in 10.0 mi North 8.1 mph - N/A   Clear
10:35 AM 61.7 °F 28.9 °F 29% 29.85 in 10.0 mi North 9.2 mph - N/A   Clear
10:55 AM 62.4 °F 29.8 °F 29% 29.86 in 10.0 mi NNW 9.2 mph - N/A   Clear
11:15 AM 62.6 °F 27.9 °F 27% 29.86 in 10.0 mi North 9.2 mph - N/A   Clear
11:35 AM 63.3 °F 29.5 °F 28% 29.87 in 10.0 mi NW 9.2 mph 16.1 mph N/A   Clear
11:55 AM 63.5 °F 30.4 °F 29% 29.86 in 10.0 mi NNW 9.2 mph - N/A   Clear
12:15 PM 64.2 °F 30.0 °F 28% 29.86 in 10.0 mi NNW 6.9 mph - N/A   Clear
12:35 PM 64.6 °F 28.9 °F 26% 29.86 in 10.0 mi NNW 6.9 mph 16.1 mph N/A   Clear
12:55 PM 66.0 °F 29.8 °F 26% 29.85 in 10.0 mi North 5.8 mph - N/A   Clear
1:15 PM 66.7 °F 28.0 °F 23% 29.85 in 10.0 mi NNW 10.4 mph - N/A   Clear
1:35 PM 66.6 °F 27.1 °F 23% 29.85 in 10.0 mi NW 4.6 mph 18.4 mph N/A   Clear
1:55 PM 66.9 °F 27.1 °F 22% 29.85 in 10.0 mi North 9.2 mph - N/A   Scattered Clouds
2:15 PM 65.7 °F 27.9 °F 24% 29.85 in 10.0 mi North 6.9 mph - N/A   Mostly Cloudy
2:35 PM 67.3 °F 28.2 °F 23% 29.84 in 10.0 mi WNW 10.4 mph 16.1 mph N/A   Mostly Cloudy
2:55 PM 66.7 °F 26.4 °F 22% 29.84 in 10.0 mi NW 9.2 mph - N/A   Mostly Cloudy
3:15 PM 69.1 °F 27.1 °F 21% 29.84 in 10.0 mi NNW 8.1 mph - N/A   Mostly Cloudy
3:55 PM 66.7 °F 26.4 °F 22% 29.84 in 10.0 mi WNW 11.5 mph - N/A   Mostly Cloudy
4:15 PM 69.1 °F 25.9 °F 20% 29.85 in 10.0 mi WNW 8.1 mph 16.1 mph N/A   Mostly Cloudy
4:35 PM 68.2 °F 27.3 °F 22% 29.85 in 10.0 mi WNW 9.2 mph 20.7 mph N/A   Scattered Clouds
4:55 PM 68.7 °F 27.7 °F 22% 29.85 in 10.0 mi West 10.4 mph 18.4 mph N/A   Clear
5:15 PM 68.9 °F 27.7 °F 21% 29.86 in 10.0 mi West 5.8 mph - N/A   Clear
5:35 PM 67.8 °F 29.7 °F 24% 29.86 in 10.0 mi West 6.9 mph - N/A   Clear
5:55 PM 67.3 °F 28.6 °F 23% 29.87 in 10.0 mi West 6.9 mph - N/A   Clear
6:15 PM 67.1 °F 25.7 °F 21% 29.88 in 10.0 mi NW 10.4 mph 18.4 mph N/A   Mostly Cloudy
6:35 PM - - N/A% - - North - - N/A   Unknown
6:55 PM 66.6 °F 27.5 °F 23% 29.90 in 10.0 mi WNW 3.5 mph - 0.03 in   Mostly Cloudy
7:15 PM 65.7 °F 28.0 °F 24% 29.91 in 10.0 mi Calm Calm - N/A   Overcast
7:35 PM 65.1 °F 29.1 °F 26% 29.92 in 10.0 mi Calm Calm - N/A   Mostly Cloudy
7:55 PM 63.1 °F 30.7 °F 30% 29.93 in 10.0 mi NW 3.5 mph - N/A   Scattered Clouds
8:15 PM 61.7 °F 34.7 °F 36% 29.95 in 10.0 mi Calm Calm - N/A   Scattered Clouds
8:35 PM 56.7 °F 37.6 °F 49% 29.96 in 10.0 mi Calm Calm - N/A   Mostly Cloudy
8:55 PM 55.9 °F 38.7 °F 52% 29.98 in 10.0 mi Calm Calm - N/A   Scattered Clouds
9:15 PM 53.4 °F 37.6 °F 55% 29.99 in 10.0 mi Calm Calm - N/A   Clear
9:35 PM 53.2 °F 39.6 °F 60% 30.01 in 10.0 mi Calm Calm - N/A   Clear
9:55 PM 51.8 °F 39.0 °F 62% 30.02 in 10.0 mi Calm Calm - N/A   Clear
10:15 PM 48.9 °F 38.8 °F 68% 30.03 in 10.0 mi Calm Calm - N/A   Clear
10:35 PM 49.6 °F 39.9 °F 69% 30.04 in 10.0 mi Calm Calm - N/A   Scattered Clouds
10:55 PM 49.1 °F 39.2 °F 69% 30.05 in 10.0 mi Calm Calm - N/A   Scattered Clouds
11:15 PM 47.8 °F 40.1 °F 75% 30.05 in 10.0 mi Calm Calm - N/A   Mostly Cloudy
11:35 PM 48.7 °F 40.1 °F 72% 30.06 in 10.0 mi Calm Calm - N/A   Overcast
11:55 PM 49.8 °F 40.5 °F 70% 30.08 in 10.0 mi Calm Calm - N/A   Overcast